Weather History for Eureka, NU

Change the Weather History Date:

Tuesday, February 5, 2013

  Actual Average Record
Temperature  
Mean Temperature -36 °F -  
Max Temperature -26 °F -31 °F -13 °F (2006)
Min Temperature -47 °F -44 °F -54 °F (2011)
Degree Days  
Heating Degree Days 102    
Moisture  
Dew Point -43 °F    
Average Humidity 63    
Maximum Humidity 82    
Minimum Humidity 42    
Precipitation  
Precipitation 0.00 in 0.00 in - ()
Sea Level Pressure  
Sea Level Pressure 30.18 in    
Wind  
Wind Speed 1 mph ()    
Max Wind Speed 5 mph    
Max Gust Speed -    
Visibility 15.0 miles    
Events Snow    
Averages and records for this station are not official NWS values.
T = Trace of Precipitation, MM = Missing Value Source: Averaged Metar Reports

Daily Weather History Graph

Daily Weather History Graph

Search for Another Location

Airport:

Trip Planner

Search our weather history database for the weather conditions in past years. The results will help you decide how hot, cold, wet, or windy it might be!

Date:

Astronomy

Dec. 31, 1969 Rise Set
Actual Time Sun does not rise Sun does not rise
Civil Twilight 11:00 AM CST 12:57 PM CST
Nautical Twilight 7:21 AM CST 4:37 PM CST
Astronomical Twilight 5:01 AM CST 6:58 PM CST
Moon No Moon Rise No Moon Set
Length of Visible Light 1h 56m
Length of Day
0h 00m
Waning Crescent, 26% of the Moon is Illuminated
Feb 5
Waning Crescent
Feb 10
New
Feb 17
First Quarter
Feb 25
Full
Mar 4
Last Quarter

Hourly Weather History & Observations

Time (CST) Temp. Windchill Dew Point Humidity Pressure Visibility Wind Dir Wind Speed Gust Speed Precip Events Conditions
12:00 AM -46 °F - -50 °F 65% 30.16 in 15 mi Calm Calm - - Snow Snow
12:00 AM -45.4 °F - -50.8 °F 74% 30.16 in 15.0 mi Calm Calm - N/A   Clear
1:00 AM -41.8 °F - -47.2 °F 74% 30.18 in 15.0 mi Calm Calm - N/A   Clear
2:00 AM -43.6 °F - -49.0 °F 74% 30.20 in 15.0 mi Calm Calm - N/A   Clear
3:00 AM -41.8 °F - -45.4 °F 82% 30.22 in 15.0 mi Calm Calm - N/A   Clear
4:00 AM -38.2 °F - -45.4 °F 67% 30.22 in 15.0 mi Calm Calm - N/A   Clear
5:00 AM -32.8 °F - -41.8 °F 62% 30.23 in 15.0 mi ENE 2.3 mph - N/A   Clear
6:00 AM -33 °F - -41 °F 44% 30.23 in 15 mi ENE 2.3 mph - - Snow Snow
6:00 AM -32.8 °F - -41.8 °F 62% 30.23 in 15.0 mi ENE 2.3 mph - N/A   Clear
7:00 AM -34.6 °F - -41.8 °F 68% 30.23 in 15.0 mi Calm Calm - N/A   Clear
8:00 AM -32.8 °F - -41.8 °F 62% 30.23 in 15.0 mi Calm Calm - N/A   Partly Cloudy
9:00 AM -34.6 °F - -41.8 °F 68% 30.23 in 15.0 mi Calm Calm - N/A   Partly Cloudy
10:00 AM -32.8 °F - -41.8 °F 62% 30.22 in 15.0 mi Calm Calm - N/A   Partly Cloudy
11:00 AM -34.6 °F - -41.8 °F 68% 30.23 in 15.0 mi Calm Calm - N/A   Partly Cloudy
12:00 PM -31 °F - -39 °F 46% 30.20 in 37 mi Calm Calm - - Snow Snow
12:00 PM -31.0 °F - -40.0 °F 62% 30.20 in 40.0 mi Calm Calm - N/A   Overcast
1:00 PM -31.0 °F - -40.0 °F 62% 30.20 in 40.0 mi South 2.3 mph - N/A   Overcast
2:00 PM -27.4 °F - -36.4 °F 62% 30.18 in 40.0 mi ENE 2.3 mph - N/A   Overcast
3:00 PM -29.2 °F - -38.2 °F 62% 30.17 in 15.0 mi Calm Calm - N/A   Scattered Clouds
4:00 PM -31.0 °F - -40.0 °F 62% 30.16 in 15.0 mi Calm Calm - N/A   Clear
5:00 PM -31.0 °F - -40.0 °F 62% 30.14 in 15.0 mi Calm Calm - N/A   Clear
6:00 PM -33 °F - -42 °F 42% 30.12 in 15 mi Calm Calm - - Snow Snow
6:00 PM -32.8 °F - -41.8 °F 62% 30.12 in 15.0 mi Calm Calm - N/A   Clear
7:00 PM -32.8 °F -48.2 °F -41.8 °F 62% 30.10 in 15.0 mi West 4.6 mph - N/A   Clear
8:00 PM -34.6 °F -47.4 °F -41.8 °F 68% 30.08 in 15.0 mi West 3.5 mph - N/A   Clear
9:00 PM -34.6 °F - -43.6 °F 61% 30.04 in 15.0 mi NW 2.3 mph - N/A   Clear